sat.trackr.live / text

‹ back to catalog

STARLINK-32798

NORAD 63029 · 2025-034A

PAYLOAD ACTIVE UNKNOWN

§ Identity

Operator
Country
US
Launch date
2025-02-18
Launch site
AFETR
Launch vehicle
Mass (kg)
RCS (m²)

Purposes: comms

External: N2YO · Heavens-Above · Gunter

§ Orbital elements

Epoch: 2026-09-21T22:50:35.373120Z

Period
93.85 min
Inclination
53.1589°
Eccentricity
0.0001169
Mean motion
15.34392419 rev/d
Perigee alt
461.9 km
Apogee alt
463.5 km
Semi-major
6,840.9 km
B*
3.1195e-4
RAAN
76.5832°
Arg perigee
83.9264°
Mean anomaly
276.1872°
Rev number
8,899

§ Raw data

STARLINK-327981 63029U 25034A   26264.95179830  .00010175  00000+0  31195-3 0  99912 63029  53.1589  76.5832 0001169  83.9264 276.1872 15.34392419 88991

JSON: /api/v1/satellites/63029 · /tle

For live sub-satellite position, see the globe view (requires WebGL).

§ Visibility from observer

Set your observer location to see the next 7 days of passes ≥ 10°. The values pass through the URL so the page stays shareable.

No JS? Fill the form by hand. The geolocation button needs JavaScript.